Terug naar catalogus

ORBCOMM FM 117

ActiefCommunicatieLEO
NORAD 41188·PAYLOAD·🇺🇸 United States

Gelanceerd Dec 22, 2015 vanaf Cape Canaveral Space Force Station

Loading…

Volgende Passages (komende 24 uur)

TLE

VersSource: Space-Track

Epoch: Sep 14, 2026, 14:59 UTC

1 41188U 15081K   26257.62467241  .00000406  00000-0  12180-3 0  9996
2 41188  47.0005 117.9146 0003027 260.4873  99.5671 14.58961336573188

Volg ORBCOMM FM 117 in realtime met AllMySat

Download on the App Store